Yoho Park, British Columbia

7:13 AM MDT on June 27, 2017 (GMT -0600)
Yoho Park

Weather History for CWYL - September, 2013

Change the Weather History Date:

Friday, September 6, 2013

  Actual Average Record
Temperature  
Mean Temperature 54 °F -  
Max Temperature 61 °F - - ()
Min Temperature 47 °F - - ()
Degree Days  
Heating Degree Days 10    
Growing Degree Days 4 (Base 50)    
Moisture  
Dew Point 52 °F    
Average Humidity 91    
Maximum Humidity 98    
Minimum Humidity 78    
Precipitation  
Precipitation 0.28 in - - ()
Sea Level Pressure  
Sea Level Pressure 30.09 in    
Wind  
Wind Speed 6 mph ()    
Max Wind Speed 14 mph    
Max Gust Speed 23 mph    
T = Trace of Precipitation, MM = Missing Value Source: Averaged Metar Reports

Daily Weather History Graph

Daily Weather History Graph

Search for Another Location

Airport or City:

Trip Planner

Search our weather history database for the weather conditions in past years. The results will help you decide how hot, cold, wet, or windy it might be!

Date:

Astronomy

Sep. 06, 2013 Rise Set
Actual Time 7:06 AM MDT 8:19 PM MDT
Civil Twilight 6:32 AM MDT 8:53 PM MDT
Nautical Twilight 5:50 AM MDT 9:35 PM MDT
Astronomical Twilight 5:05 AM MDT 10:19 PM MDT
Moon 8:38 AM MDT (9/6) 8:27 PM MDT (9/6)
Length of Visible Light 14h 21m
Length of Day
13h 12m
New Moon, 2% of the Moon is Illuminated
Sep 6
New Moon
Sep 12
First Quarter
Sep 19
Full
Sep 26
Last Quarter
Oct 4
New

Hourly Weather History & Observations

Time (MDT) Temp. Dew Point Humidity Pressure Visibility Wind Dir Wind Speed Gust Speed Precip Events Conditions
12:00 AM 56 °F 54 °F 91% 30.02 in - NE 6.9 mph - -  
12:00 AM 55.9 °F 54.1 °F 94% 30.02 in - NE 6.9 mph - N/A   Unknown
1:00 AM 55.4 °F 54.5 °F 97% 30.02 in - NE 2.3 mph - 0.09 in   Unknown
2:00 AM 54.7 °F 53.8 °F 97% 30.03 in - West 1.2 mph - N/A   Unknown
3:00 AM 54.7 °F 54.0 °F 97% 30.03 in - ESE 3.5 mph - N/A   Unknown
4:00 AM 54.3 °F 53.6 °F 97% 30.04 in - SSW 1.2 mph - 0.01 in   Unknown
5:00 AM 54.1 °F 53.4 °F 97% 30.05 in - ENE 3.5 mph - 0.01 in   Unknown
6:00 AM 54 °F 53 °F 94% 30.06 in - East 10.4 mph - -  
6:00 AM 54.5 °F 52.7 °F 94% 30.06 in - East 10.4 mph - N/A   Unknown
7:00 AM 53.6 °F 52.5 °F 96% 30.08 in - ENE 8.1 mph - N/A   Unknown
8:00 AM 54.1 °F 52.3 °F 94% 30.09 in - East 8.1 mph - N/A   Unknown
9:00 AM 55.4 °F 52.3 °F 89% 30.10 in - East 9.2 mph - N/A   Unknown
10:00 AM 56.5 °F 52.2 °F 85% 30.09 in - East 11.5 mph - N/A   Unknown
11:00 AM 57.9 °F 51.3 °F 78% 30.09 in - ENE 11.5 mph 20.7 mph N/A   Unknown
12:00 PM 57 °F 53 °F 81% 30.10 in - ENE 10.4 mph - -  
12:00 PM 56.7 °F 52.9 °F 87% 30.10 in - ENE 10.4 mph - N/A   Unknown
1:00 PM 55.9 °F 53.8 °F 92% 30.11 in - ENE 2.3 mph - 0.08 in   Unknown
2:00 PM 61.2 °F 56.5 °F 85% 30.07 in - East 9.2 mph - 0.02 in   Unknown
3:00 PM 61.9 °F 55.2 °F 79% 30.04 in - East 6.9 mph - N/A   Unknown
4:00 PM 59.9 °F 52.9 °F 78% 30.03 in - East 8.1 mph - N/A   Unknown
5:00 PM 54.7 °F 53.2 °F 95% 30.12 in - SSW 2.3 mph - 0.07 in   Unknown
6:00 PM 53.8 °F 52.7 °F 96% 30.11 in - ENE 4.6 mph - 0.11 in   Unknown
7:00 PM 49.5 °F 48.7 °F 97% 30.19 in - NW 5.8 mph - 0.23 in   Unknown
8:00 PM 49.8 °F 47.8 °F 93% 30.17 in - NE 10.4 mph - 0.04 in   Unknown
9:00 PM 49.1 °F 46.9 °F 92% 30.21 in - ENE 13.8 mph 23.0 mph N/A   Unknown
10:00 PM 48.0 °F 47.3 °F 97% 30.19 in - ENE 8.1 mph - 0.02 in   Unknown
11:00 PM 47.5 °F 46.9 °F 98% 30.21 in - ENE 8.1 mph - N/A   Unknown